Tracking 19563 objects as of 20-Mar-2019
HD Live streaming from Space Station
objects crossing your sky now

LEMUR 2 BROWNCOW

Track LEMUR 2 BROWNCOW now!
10-day predictions
LEMUR 2 BROWNCOW is classified as:


NORAD ID: 43125
Int'l Code: 2018-004Q
Perigee: 494.8 km
Apogee: 507.5 km
Inclination: 97.5 °
Period: 94.5 minutes
Semi major axis: 6872 km
RCS: Unknown
Launch date: January 12, 2018
Source: United States (US)
Launch site: SRIHARIKOTA (SRI)
aabbcc
Your satellite tracking list
Your tracking list is empty




NASA's NSSDC Master Catalog

Two Line Element Set (TLE):
1 43125U 18004Q   19078.46389047 +.00002314 +00000-0 +98693-4 0  9993
2 43125 097.4990 146.6133 0009243 203.3000 156.7819 15.23930858065625
Source of the keplerian elements: AFSPC